TimeCST,TemperatureF,Dew PointF,Humidity,Sea Level PressureIn,VisibilityMPH,Wind Direction,Wind SpeedMPH,Gust SpeedMPH,PrecipitationIn,Events,Conditions,WindDirDegrees,DateUTC
12:15 AM,41.0,30.2,65,30.15,10.0,SSE,4.6,-,N/A,,Clear,150,2012-11-30 06:15:00
12:35 AM,44.6,32.0,61,30.15,10.0,SSE,3.5,-,N/A,,Clear,160,2012-11-30 06:35:00
12:55 AM,44.6,30.2,57,30.15,10.0,South,4.6,-,N/A,,Partly Cloudy,170,2012-11-30 06:55:00
1:15 AM,44.6,32.0,61,30.15,10.0,Calm,Calm,-,N/A,,Partly Cloudy,0,2012-11-30 07:15:00
1:35 AM,42.8,30.2,61,30.15,10.0,SE,4.6,-,N/A,,Clear,140,2012-11-30 07:35:00
1:55 AM,44.6,32.0,61,30.15,10.0,SSE,3.5,-,N/A,,Clear,160,2012-11-30 07:55:00
2:15 AM,44.6,32.0,61,30.15,10.0,SSE,3.5,-,N/A,,Scattered Clouds,150,2012-11-30 08:15:00
2:35 AM,41.0,32.0,70,30.15,10.0,SE,3.5,-,N/A,,Scattered Clouds,130,2012-11-30 08:35:00
2:55 AM,41.0,32.0,70,30.15,10.0,SE,5.8,-,N/A,,Scattered Clouds,140,2012-11-30 08:55:00
3:15 AM,44.6,32.0,61,30.14,10.0,SSE,4.6,-,N/A,,Scattered Clouds,150,2012-11-30 09:15:00
3:35 AM,41.0,32.0,70,30.14,10.0,SE,3.5,-,N/A,,Scattered Clouds,140,2012-11-30 09:35:00
3:55 AM,41.0,32.0,70,30.13,10.0,SSE,3.5,-,N/A,,Partly Cloudy,150,2012-11-30 09:55:00
4:15 AM,41.0,32.0,70,30.13,10.0,SSE,4.6,-,N/A,,Partly Cloudy,150,2012-11-30 10:15:00
4:35 AM,42.8,32.0,66,30.13,10.0,SSE,4.6,-,N/A,,Partly Cloudy,150,2012-11-30 10:35:00
4:55 AM,42.8,32.0,66,30.12,10.0,SSE,3.5,-,N/A,,Partly Cloudy,150,2012-11-30 10:55:00
5:15 AM,41.0,32.0,70,30.12,10.0,SSE,3.5,-,N/A,,Partly Cloudy,160,2012-11-30 11:15:00
5:35 AM,41.0,32.0,70,30.12,10.0,SSE,3.5,-,N/A,,Clear,160,2012-11-30 11:35:00
6:50 AM,41.0,32.0,70,30.13,10.0,SE,4.6,-,N/A,,Clear,130,2012-11-30 12:50:00
7:49 AM,44.6,35.6,71,30.14,10.0,ESE,4.6,-,N/A,,Clear,120,2012-11-30 13:49:00
8:49 AM,55.4,41.0,58,30.15,10.0,Calm,Calm,-,N/A,,Clear,0,2012-11-30 14:49:00
9:52 AM,59.0,44.6,59,30.16,10.0,SSW,6.9,-,N/A,,Clear,210,2012-11-30 15:52:00
10:45 AM,62.6,46.4,55,30.16,10.0,SW,6.9,-,N/A,,Partly Cloudy,220,2012-11-30 16:45:00
11:45 AM,64.4,48.2,56,30.13,10.0,West,6.9,-,N/A,,Partly Cloudy,260,2012-11-30 17:45:00
12:48 PM,66.2,48.2,52,30.10,10.0,West,9.2,-,N/A,,Scattered Clouds,270,2012-11-30 18:48:00
1:55 PM,68.0,48.2,49,30.08,10.0,SSE,6.9,-,N/A,,Mostly Cloudy,150,2012-11-30 19:55:00
2:47 PM,68.0,48.2,49,30.08,10.0,South,5.8,-,N/A,,Mostly Cloudy,180,2012-11-30 20:47:00
3:49 PM,66.2,50.0,56,30.08,10.0,SSW,5.8,-,N/A,,Mostly Cloudy,210,2012-11-30 21:49:00
4:45 PM,64.4,50.0,59,30.08,10.0,SSW,5.8,-,N/A,,Mostly Cloudy,210,2012-11-30 22:45:00
6:51 PM,59.0,48.2,67,30.09,10.0,SSE,9.2,-,N/A,,Mostly Cloudy,150,2012-12-01 00:51:00
7:52 PM,57.2,48.2,72,30.09,10.0,SSE,10.4,-,N/A,,Mostly Cloudy,160,2012-12-01 01:52:00
8:15 PM,57.2,48.2,72,30.09,10.0,SSE,9.2,-,N/A,,Clear,150,2012-12-01 02:15:00
8:35 PM,55.4,48.2,77,30.09,10.0,SSE,8.1,-,N/A,,Clear,150,2012-12-01 02:35:00
8:46 PM,55.4,48.2,77,30.09,10.0,SSE,11.5,-,N/A,,Scattered Clouds,160,2012-12-01 02:46:00
9:15 PM,55.4,48.2,77,30.09,10.0,SE,10.4,-,N/A,,Clear,140,2012-12-01 03:15:00
9:35 PM,55.4,48.2,77,30.09,9.0,SSE,8.1,-,N/A,,Clear,160,2012-12-01 03:35:00
9:55 PM,53.6,48.2,82,30.09,8.0,SSE,8.1,-,N/A,,Clear,150,2012-12-01 03:55:00
10:15 PM,53.6,50.0,88,30.09,7.0,SSE,6.9,-,N/A,,Partly Cloudy,150,2012-12-01 04:15:00
10:35 PM,55.4,50.0,82,30.10,7.0,SSE,5.8,-,N/A,,Mostly Cloudy,160,2012-12-01 04:35:00
10:55 PM,55.4,50.0,82,30.09,7.0,SSE,5.8,-,N/A,,Mostly Cloudy,150,2012-12-01 04:55:00
11:15 PM,55.4,50.0,82,30.09,7.0,SSE,6.9,-,N/A,,Mostly Cloudy,150,2012-12-01 05:15:00
11:35 PM,55.4,50.0,82,30.09,7.0,SE,6.9,-,N/A,,Mostly Cloudy,140,2012-12-01 05:35:00
11:55 PM,53.6,50.0,88,30.09,7.0,SE,6.9,-,N/A,,Mostly Cloudy,140,2012-12-01 05:55:00